Theta_e
294 293 293 293 292 292 292 292 292 293 294 294 295 296 296 296 297 294 289 292 286 279 279 281 282 277 276 278 270 272 272 271 273 271 265 265 262 266 264 267 266 270 270 270 271 269 267 282 281 277 282 284 285 286
293 292 292 292 291 291 291 291 292 293 294 295 297 297 297 297 297 296 286 292 291 279 278 283 283 283 284 283 279 277 276 274 277 268 263 265 265 264 263 263 273 267 274 271 274 274 280 282 283 285 285 283 284 285
292 292 292 291 291 291 291 291 292 293 294 295 296 297 296 296 297 295 290 288 287 282 277 278 279 282 285 284 285 274 276 280 277 278 271 267 264 273 263 266 269 273 277 273 273 277 279 280 283 286 284 284 285 286
292 291 291 291 290 290 290 291 292 293 293 294 295 296 296 297 297 296 288 289 287 282 274 272 281 281 285 286 284 283 280 281 281 278 272 270 265 275 272 273 272 275 274 271 274 277 278 279 281 283 284 285 285 284
291 291 290 290 290 290 290 290 291 292 293 295 296 296 296 297 295 291 291 290 288 280 269 266 277 282 283 285 284 284 282 277 271 273 274 272 274 274 276 274 273 277 275 272 272 278 278 279 282 283 282 282 284 282
291 290 290 289 289 289 290 290 291 292 294 296 296 296 296 296 294 287 281 289 289 285 273 266 272 271 281 282 282 282 283 278 275 271 267 271 277 276 272 271 277 280 280 280 278 281 281 282 282 282 282 283 283 283
290 290 289 289 289 289 289 289 290 291 292 295 295 295 295 297 290 281 278 285 291 288 277 269 266 270 276 280 277 278 278 273 274 273 274 275 276 281 276 273 279 279 281 281 282 282 279 280 280 283 283 285 282 281
290 289 289 288 288 288 289 289 289 290 292 293 295 293 294 294 292 284 289 293 290 281 277 267 262 266 280 278 276 281 280 281 276 272 270 272 278 278 272 276 279 280 280 281 282 282 282 282 281 280 282 281 277 282
289 289 288 287 287 288 288 288 289 290 291 292 295 292 286 285 280 284 294 292 287 279 269 261 263 263 276 269 270 278 272 268 267 271 268 276 270 270 274 275 276 269 271 271 273 280 282 284 284 284 284 284 282 284
288 288 288 287 287 287 287 288 288 289 290 293 285 273 272 283 294 291 285 280 280 278 266 263 259 263 274 271 272 267 271 268 265 269 270 272 266 272 267 265 264 263 263 263 267 270 271 273 274 274 276 281 282 283
288 288 287 287 286 286 286 287 287 288 288 284 280 270 282 289 284 279 274 273 273 271 273 268 266 271 272 266 267 270 266 263 262 265 268 263 266 267 260 261 261 260 260 260 261 263 265 266 267 267 268 270 272 274
287 287 287 287 286 286 286 286 286 283 282 281 281 284 285 280 273 272 268 267 264 265 265 272 273 270 270 271 267 271 264 265 260 259 266 259 265 255 254 256 257 257 256 256 256 257 258 259 260 260 262 265 267 270
287 286 286 286 286 286 285 285 286 286 284 281 280 278 276 271 269 262 260 260 259 261 266 270 270 273 276 275 266 265 269 268 264 267 263 263 253 251 250 252 253 252 251 251 253 252 251 253 255 255 259 262 264 265
286 285 285 285 285 284 284 284 284 282 276 274 275 270 269 265 263 261 260 262 261 262 264 269 270 271 268 273 271 269 264 267 263 257 261 252 249 248 248 248 247 250 251 251 251 251 251 252 255 256 257 259 262 263
285 284 285 282 283 283 283 283 283 276 273 270 272 269 264 255 250 250 250 255 255 256 263 268 271 272 268 269 265 264 263 259 259 260 255 250 248 246 247 247 248 250 252 252 251 251 252 252 252 255 257 258 260 262
283 282 275 281 282 281 281 280 271 271 267 265 265 261 254 255 252 251 251 252 254 260 265 269 270 269 269 266 261 261 259 258 261 251 252 252 252 249 248 248 249 250 249 251 252 252 253 253 254 255 257 258 259 261
282 266 279 280 280 281 280 269 266 266 263 262 260 253 251 252 255 249 249 251 259 259 263 263 265 265 263 256 258 258 262 258 253 253 254 253 251 251 250 251 250 249 250 251 252 252 252 254 256 256 255 258 261 263
265 272 278 279 278 273 259 266 263 263 260 255 252 251 249 250 250 249 248 254 257 260 258 261 262 260 258 258 259 253 251 248 249 247 248 249 249 249 250 250 251 249 249 250 251 252 253 253 255 257 258 260 263 267
274 274 278 277 273 269 260 261 262 260 255 253 252 253 251 251 251 252 251 255 255 256 259 258 258 256 253 247 248 247 245 243 244 245 246 247 247 247 249 249 249 248 247 248 249 251 254 255 257 259 261 264 265 261
275 273 273 274 272 260 256 258 263 258 255 255 253 251 252 251 251 251 250 250 252 254 253 249 243 241 245 244 243 242 242 244 241 241 244 246 248 248 250 249 250 250 250 250 252 255 256 257 260 262 263 262 262 262
264 263 268 262 255 256 254 254 257 257 255 253 253 253 251 251 250 248 247 248 247 243 244 241 241 242 241 239 240 239 242 243 242 243 243 246 250 250 251 251 250 251 251 251 253 254 256 257 259 261 262 261 262 263
250 266 251 259 256 257 253 254 257 256 255 253 253 253 251 250 248 246 247 245 242 242 242 241 242 240 240 240 242 239 241 240 242 243 246 248 248 249 250 251 251 250 251 251 253 254 255 258 261 262 262 262 265 265
259 257 255 254 256 254 253 256 256 255 254 253 252 251 249 246 244 247 242 242 241 244 242 241 241 241 240 239 239 240 240 240 240 242 244 248 249 250 251 251 251 250 250 251 253 253 256 260 262 261 262 263 264 263
257 247 249 248 249 251 253 253 256 254 253 251 251 247 247 246 246 245 240 240 243 243 243 242 241 243 242 240 239 238 240 240 241 243 244 247 247 249 250 251 251 251 251 252 252 255 258 260 261 261 261 261 261 261
249 244 245 244 247 247 248 250 251 252 249 248 248 245 245 246 245 241 237 241 243 243 243 242 241 239 239 238 238 239 241 241 243 243 245 246 248 249 250 251 251 253 253 252 252 254 258 259 260 259 260 261 260 260
241 242 241 241 243 244 244 246 245 245 248 246 244 244 245 246 247 239 238 242 243 243 241 239 239 240 238 238 238 241 241 243 246 245 246 248 249 248 248 248 248 250 254 254 253 254 257 258 259 260 260 260 261 261
240 240 243 246 245 245 245 246 246 244 243 243 243 246 247 245 239 238 244 245 243 242 242 242 241 240 239 238 240 241 244 245 246 247 250 250 251 252 250 249 248 250 254 255 254 255 257 257 258 259 259 260 261 261
241 243 241 243 244 244 242 242 241 240 241 243 243 240 242 240 237 240 244 247 246 245 243 242 242 239 238 238 241 243 244 245 248 248 250 252 253 253 252 252 252 257 254 256 255 255 255 256 257 257 257 258 259 261
243 245 244 243 244 243 242 241 242 243 244 243 242 241 241 243 243 242 245 245 244 243 241 239 242 240 241 242 243 244 245 246 246 247 249 249 249 251 252 251 252 253 253 255 259 258 256 256 256 256 256 256 257 258
243 245 244 243 242 241 243 244 244 246 247 246 246 245 245 245 246 247 246 245 242 240 240 240 242 241 242 243 245 246 248 248 248 245 247 247 248 250 250 251 251 252 253 254 255 255 259 257 258 257 257 257 256 256
243 245 245 245 243 245 246 247 249 249 248 246 246 244 243 244 246 248 247 245 242 242 244 244 245 245 244 244 243 244 245 248 248 249 250 250 250 250 250 251 252 253 253 254 254 254 254 255 255 254 254 254 254 254
245 244 245 244 244 246 247 246 247 246 246 245 245 246 245 244 242 245 247 245 243 242 244 243 242 242 245 246 247 246 249 247 248 250 251 251 251 251 251 251 252 252 253 253 253 253 253 252 252 252 252 251 251 251
244 245 245 245 245 245 246 246 246 245 245 244 244 244 244 243 242 245 248 246 245 243 243 243 244 245 246 247 247 247 248 248 250 254 257 255 254 253 251 251 252 252 252 251 251 252 251 251 251 251 251 251 250 251
Wind_Speed
28 29 29 32 31 33 33 30 33 35 36 37 37 41 39 33 31 15 4 13 11 8 6 8 9 6 3 5 6 5 5 4 3 5 5 5 4 8 4 5 8 11 11 9 10 13 17 5 3 4 5 3 4 6
27 29 27 31 31 33 33 31 35 37 37 39 37 28 21 26 27 20 9 10 13 4 6 7 7 6 11 11 7 4 5 6 6 4 1 3 2 2 2 5 1 5 9 9 12 8 7 10 15 9 5 6 6 6
26 29 28 32 33 32 33 31 36 37 37 37 36 29 24 23 25 23 8 9 8 6 2 3 7 5 3 6 6 6 2 3 2 3 5 3 3 6 5 8 8 7 11 9 7 10 10 7 11 16 10 12 9 9
25 29 28 30 33 32 32 32 36 38 39 38 34 31 28 26 24 20 6 8 7 4 4 5 2 6 6 6 6 5 7 4 4 3 3 3 4 4 6 6 7 11 3 8 10 10 11 10 8 14 16 17 15 11
25 28 27 30 30 32 31 33 36 38 40 38 31 29 27 26 11 1 10 14 7 7 5 2 2 5 4 12 12 6 6 5 3 2 2 4 2 1 2 2 11 16 20 12 12 17 18 22 18 19 14 13 12 8
25 26 27 31 30 31 31 33 35 39 40 32 28 26 26 28 14 3 3 3 4 3 5 1 2 3 3 7 9 10 7 3 4 5 4 4 6 3 4 10 31 23 18 20 22 22 17 19 14 11 17 16 13 11
25 25 27 29 29 30 32 33 35 38 40 37 28 23 41 18 12 5 6 6 15 5 3 3 3 4 0 5 2 2 3 3 4 3 4 4 3 7 4 14 14 10 19 20 18 10 9 9 13 15 8 12 7 6
23 24 25 27 29 29 30 32 34 37 39 38 22 16 19 24 16 5 4 23 14 5 3 4 4 4 2 3 4 5 4 4 4 4 1 3 1 4 6 8 10 6 9 11 16 15 18 6 5 5 3 4 9 10
22 24 25 26 27 29 29 30 32 35 37 35 21 9 4 4 3 0 17 19 3 4 6 4 7 5 2 2 2 3 3 2 1 4 4 4 2 8 4 4 4 9 7 10 14 4 4 6 11 5 7 7 7 9
22 23 24 25 25 28 28 29 31 33 37 29 5 5 4 3 23 14 3 3 2 1 4 4 1 4 4 1 3 4 0 3 3 6 3 5 6 2 4 3 4 7 10 12 6 5 6 3 4 4 4 3 4 7
21 23 23 24 24 26 28 26 28 31 18 5 3 1 3 3 1 2 3 3 2 2 4 4 4 6 2 5 4 3 3 2 3 7 7 3 6 4 6 7 8 8 8 7 5 6 7 7 10 8 8 6 5 7
20 20 23 24 25 24 26 25 26 10 7 11 16 10 3 3 2 2 2 2 2 7 2 6 5 4 2 4 4 3 4 2 7 3 4 4 3 3 3 5 8 8 8 9 5 7 7 9 8 9 8 9 7 6
18 20 22 23 23 25 24 27 24 25 18 7 5 5 4 1 5 7 7 5 1 3 5 4 4 4 2 2 2 4 7 7 3 3 5 5 0 3 3 4 6 7 6 7 9 6 4 7 8 6 11 10 8 10
17 18 21 23 20 20 23 23 24 12 4 6 5 7 7 4 6 7 6 5 3 3 4 2 3 3 3 5 4 5 2 2 2 1 9 2 3 4 4 3 1 5 6 9 9 8 9 10 11 11 9 10 11 11
16 16 20 11 17 19 21 23 22 2 3 7 4 6 6 0 2 1 2 2 2 1 2 3 2 2 2 4 2 4 2 5 7 8 3 3 3 2 4 3 6 8 8 7 6 6 8 8 8 14 13 10 9 10
13 13 4 13 17 21 24 16 2 2 4 5 4 3 1 3 4 2 1 1 2 0 1 1 3 3 3 4 4 7 7 8 5 2 1 1 2 4 4 4 5 7 8 11 11 11 11 11 11 12 13 12 11 10
13 3 7 14 18 20 19 4 0 6 4 3 3 2 2 3 3 2 2 2 1 2 3 3 5 6 3 3 2 5 5 2 2 1 3 6 7 9 8 8 7 7 8 11 12 13 13 12 13 11 14 12 11 10
2 4 8 13 12 8 3 1 3 3 5 0 1 1 2 2 4 2 1 1 1 2 2 4 4 3 6 6 4 2 2 2 2 2 3 6 6 7 7 9 9 7 10 10 11 13 13 12 12 10 11 13 11 10
3 2 12 13 7 2 2 2 2 4 1 0 1 2 2 3 3 3 2 2 1 1 1 2 4 4 3 1 2 2 1 0 2 4 5 7 6 7 8 7 7 7 7 9 11 9 9 12 11 10 9 9 6 2
8 9 9 7 1 3 3 3 1 2 2 1 2 2 2 2 2 3 3 4 3 2 5 4 2 2 1 1 1 2 3 2 1 3 4 3 3 5 8 6 7 8 8 10 9 10 8 8 7 5 5 3 2 2
7 7 8 5 4 4 3 1 1 0 2 1 2 2 2 1 3 3 3 4 5 4 2 0 0 2 1 2 2 2 3 1 2 4 4 7 8 8 8 5 4 6 6 7 8 8 8 7 7 6 3 0 1 2
2 9 3 4 3 1 1 2 1 2 1 1 2 1 3 3 2 2 1 6 3 1 1 1 2 1 2 1 2 3 3 3 4 5 8 9 7 7 7 7 6 7 7 7 8 8 8 8 7 3 2 2 3 4
7 5 3 4 1 2 3 1 3 2 3 3 2 3 3 3 1 2 5 2 1 1 1 1 2 2 2 3 3 3 2 2 4 4 5 5 6 7 7 7 5 5 7 8 7 7 8 10 6 2 2 3 5 5
10 7 6 4 4 1 3 1 0 2 2 1 1 3 1 2 2 4 5 1 1 1 2 4 3 2 2 3 2 3 3 1 4 5 4 5 6 8 7 7 5 3 4 8 8 8 6 5 4 2 2 4 5 6
6 8 5 6 4 4 4 3 3 2 2 2 1 2 1 1 4 4 2 2 2 2 3 3 2 2 2 2 3 4 3 0 4 4 4 2 5 7 7 5 7 7 5 7 7 8 6 3 2 3 4 5 8 9
8 4 4 5 4 4 4 3 4 3 2 2 3 0 0 2 3 2 1 2 1 1 1 1 1 2 2 3 2 3 3 2 4 2 4 3 5 6 8 8 9 8 7 8 7 8 5 3 2 6 6 8 11 12
6 4 3 1 2 3 2 2 2 3 5 4 3 2 1 4 3 2 1 0 1 2 3 2 2 3 3 4 3 4 4 4 4 5 6 5 4 5 5 6 10 8 11 8 6 6 5 4 5 6 7 7 6 9
1 3 5 5 3 4 3 3 4 4 4 3 3 6 4 4 1 2 1 2 2 3 2 2 3 3 2 3 3 4 5 4 7 6 5 5 3 3 8 6 7 14 9 6 3 5 6 6 6 7 9 10 8 7
3 4 2 4 3 4 4 4 3 2 1 2 2 3 3 2 0 1 2 2 1 2 2 3 4 2 2 2 2 2 3 4 7 4 4 4 5 5 9 8 8 7 8 8 8 9 9 8 9 9 11 11 9 10
3 3 1 3 4 5 3 2 3 4 2 2 3 4 4 3 3 1 3 3 3 2 1 1 2 3 2 3 3 4 5 5 4 2 3 4 4 8 8 8 9 8 7 6 7 8 12 10 10 9 10 10 11 11
3 2 2 3 3 2 2 2 2 5 5 6 4 4 3 2 1 4 7 4 3 3 4 4 5 5 4 5 4 4 4 4 6 6 3 2 3 6 7 7 7 7 7 8 9 10 10 10 10 12 15 16 15 13
3 4 2 3 1 1 1 1 1 2 2 3 3 2 2 3 4 4 4 4 4 4 5 4 3 3 4 2 2 2 4 4 6 6 4 3 4 5 6 6 6 7 7 9 9 10 13 13 12 13 13 15 15 14
3 4 4 2 1 1 3 1 2 2 3 3 3 3 3 3 4 2 2 1 1 1 2 3 3 3 3 3 3 3 5 4 8 12 6 8 8 7 5 5 6 7 9 8 9 10 13 15 13 13 12 13 13 12
Wind_Direction
311 319 317 317 323 318 320 313 315 311 310 305 301 289 281 277 275 271 221 202 195 194 219 196 174 161 134 185 159 221 67 334 96 177 152 201 166 213 146 210 169 175 178 196 203 206 232 232 290 209 200 164 134 126
315 316 317 313 320 321 319 320 314 312 313 310 307 314 285 264 263 254 229 193 190 183 199 184 218 185 184 172 159 210 175 169 159 110 328 85 184 26 167 242 194 247 214 208 199 205 209 189 231 236 243 225 240 182
312 320 320 315 320 322 319 319 316 317 317 316 315 302 297 281 268 258 238 190 171 162 11 96 209 209 140 166 159 140 325 181 175 156 153 188 198 162 184 224 222 217 219 234 248 245 248 233 232 233 230 245 257 235
312 314 319 321 318 322 323 319 321 323 318 313 304 300 299 288 280 259 181 190 154 111 164 260 346 191 158 169 173 147 149 78 105 104 175 168 173 186 231 236 222 235 113 202 231 237 263 254 247 252 249 238 237 243
306 313 320 319 323 322 325 323 323 323 319 312 301 296 301 297 316 323 166 166 142 129 157 249 243 214 179 184 193 155 145 128 120 88 198 226 211 125 252 274 249 221 225 216 230 229 233 245 228 227 235 244 248 218
309 315 319 318 324 327 324 325 326 325 324 315 306 305 300 293 167 134 92 128 157 103 92 100 284 2 140 158 172 189 184 137 142 150 211 237 211 161 234 242 249 253 239 233 237 234 232 247 256 244 233 238 238 220
307 317 317 321 325 327 325 327 328 328 331 328 317 325 311 231 140 139 183 158 153 79 88 21 328 316 355 96 85 121 137 177 135 199 230 217 237 212 261 256 277 238 232 234 232 219 233 216 230 246 263 270 233 236
310 312 315 322 323 328 328 328 329 328 330 328 318 10 357 122 121 36 0 142 128 90 87 124 273 15 202 147 179 178 151 161 210 202 352 183 197 236 235 244 267 272 228 225 230 222 237 177 191 222 235 284 287 247
306 308 313 321 326 327 327 329 328 331 327 324 321 343 344 4 69 102 137 128 48 124 156 121 150 217 175 190 138 158 120 160 297 211 218 143 212 226 231 306 4 11 6 334 319 354 102 227 245 201 230 278 262 272
303 304 310 318 323 326 329 328 331 333 327 315 337 39 348 309 127 102 91 142 189 73 51 164 47 165 136 116 145 98 219 196 180 232 102 209 240 101 63 31 355 355 0 352 1 47 5 349 12 354 289 284 278 280
301 301 310 311 318 324 325 326 329 333 330 326 314 307 239 231 56 100 149 167 102 147 198 182 164 140 238 130 179 193 182 182 189 248 172 228 256 150 0 340 353 354 356 4 352 319 317 315 311 319 309 320 341 321
295 299 301 310 312 315 326 327 330 337 309 304 285 299 247 165 52 113 137 109 144 212 235 169 180 180 193 117 111 183 177 126 233 164 126 262 207 74 348 327 333 340 339 339 335 308 306 302 299 296 292 287 283 268
292 297 305 304 309 319 326 325 328 327 330 281 209 215 190 195 165 166 194 252 230 177 191 167 155 143 118 149 149 133 203 217 98 156 218 230 111 301 298 310 313 317 327 315 314 302 280 274 285 265 287 281 275 275
289 295 301 303 330 324 322 328 326 350 336 265 239 217 192 175 223 184 181 178 208 125 135 140 123 153 177 165 189 197 210 123 90 157 229 133 228 267 290 271 323 293 267 264 279 292 297 299 299 295 267 273 285 281
291 302 299 326 325 327 325 316 326 44 248 264 247 232 211 338 24 187 185 99 356 309 119 104 83 162 151 158 119 98 82 233 206 226 206 205 237 248 275 280 278 299 300 296 282 281 280 271 269 287 288 278 270 278
302 314 343 329 333 320 311 326 14 130 248 247 236 154 98 51 306 2 41 110 262 101 51 52 146 157 178 138 109 209 147 216 235 211 277 302 228 242 251 266 276 278 284 304 304 294 291 290 280 275 283 281 275 261
309 176 328 329 320 333 322 313 82 221 260 246 232 13 55 75 140 180 135 207 309 81 187 134 153 194 112 71 253 192 204 112 52 342 347 359 325 315 315 298 281 281 294 299 300 297 290 285 286 283 279 275 258 247
163 232 313 328 2 334 338 96 235 263 247 353 239 297 37 58 115 58 295 3 91 172 146 191 127 118 178 172 240 115 75 346 326 286 292 285 281 276 269 284 303 301 295 292 285 283 282 278 275 272 266 264 268 262
228 334 347 350 331 283 263 291 100 276 297 117 99 41 32 90 54 58 41 25 35 329 25 31 102 179 195 89 88 86 81 315 288 295 274 265 265 274 290 293 297 289 278 282 284 278 278 272 267 271 269 271 249 189
24 20 2 332 73 114 298 275 2 204 238 162 92 88 54 60 89 65 47 25 41 21 44 44 129 196 80 162 166 183 215 230 215 304 281 271 270 288 298 294 301 298 294 289 277 277 283 287 278 287 264 215 164 191
47 350 1 47 41 76 138 263 228 267 140 102 131 126 99 63 49 43 37 337 59 39 85 323 221 255 226 240 236 215 266 204 211 204 264 301 314 308 299 286 288 307 301 300 299 302 301 292 296 299 308 342 126 92
276 1 36 340 94 79 65 220 234 141 109 124 160 91 93 87 63 45 334 55 58 69 148 202 252 253 327 328 261 209 254 304 280 273 272 276 297 313 305 311 322 322 309 298 294 301 300 297 297 304 335 353 77 106
29 23 30 17 124 159 262 163 201 169 181 181 219 114 64 77 84 206 77 62 159 36 269 253 279 229 231 313 345 346 290 270 301 290 288 298 299 295 299 309 290 313 312 301 302 295 294 298 302 340 37 67 93 95
35 47 29 39 359 292 316 309 295 128 111 69 119 116 85 112 165 52 82 7 281 312 24 355 332 350 32 27 15 292 288 255 300 291 284 322 330 325 319 307 305 285 285 289 292 293 296 304 322 349 61 100 100 104
70 357 16 1 5 345 14 5 354 49 78 9 130 102 154 211 80 57 75 308 353 3 3 357 1 36 116 269 282 288 295 68 314 307 291 311 320 320 319 333 339 314 312 316 318 316 316 320 350 55 81 102 110 106
67 331 48 346 344 17 345 355 17 6 4 43 32 140 200 117 87 76 285 316 323 319 321 303 309 340 313 216 262 319 287 279 306 267 283 327 343 321 316 337 331 318 332 317 307 308 323 348 46 98 103 110 112 109
55 343 327 290 309 301 9 0 356 32 39 17 344 308 222 77 68 282 321 237 281 242 221 209 190 211 236 282 279 268 277 266 242 258 281 290 306 310 305 319 312 297 312 312 320 339 349 25 54 74 82 73 89 114
134 23 13 327 41 9 28 36 26 18 351 345 280 26 56 41 136 257 267 312 283 307 300 264 220 204 224 249 262 300 307 301 286 267 261 257 246 293 334 330 319 331 335 338 18 21 33 47 66 73 81 83 78 87
24 341 305 16 44 45 41 18 8 340 307 297 26 68 83 64 304 288 294 311 313 67 44 12 332 348 338 334 317 309 312 344 10 14 35 20 355 324 342 337 335 343 346 360 35 95 77 73 70 72 73 77 74 71
338 330 8 54 44 26 358 343 350 356 25 53 101 104 86 68 23 356 22 13 26 15 306 248 294 55 25 24 360 4 11 8 15 354 5 27 336 311 325 338 342 348 355 10 31 42 54 57 64 66 77 79 77 79
289 289 71 46 73 339 326 321 80 77 61 58 46 72 91 128 57 33 29 7 13 26 42 32 30 22 27 21 19 3 346 359 348 342 350 324 347 331 337 344 346 351 6 22 37 47 57 60 64 71 69 70 69 74
334 19 78 93 115 328 335 26 48 64 37 38 39 58 79 62 53 359 3 1 16 23 14 25 24 345 339 328 335 284 308 300 320 316 340 9 15 352 342 349 358 8 27 41 45 54 54 58 62 64 65 66 67 68
9 14 23 64 78 65 13 360 66 91 52 47 35 31 44 69 79 325 313 100 142 277 304 290 275 283 313 335 349 331 347 327 339 352 21 68 53 31 7 359 4 19 35 47 49 53 61 68 68 68 69 71 73 74